Weather History for KPNC - January, 2013

Change the Weather History Date:

Tuesday, January 8, 2013

  Actual Average Record
Temperature  
Mean Temperature 46 °F -  
Max Temperature 57 °F 37 °F 70 °F (1965)
Min Temperature 33 °F 16 °F 1 °F (1970)
Degree Days  
Heating Degree Days 20    
Moisture  
Dew Point 32 °F    
Average Humidity 63    
Maximum Humidity 93    
Minimum Humidity 37    
Precipitation  
Precipitation 0.00 in - - ()
Sea Level Pressure  
Sea Level Pressure 30.07 in    
Wind  
Wind Speed 8 mph (South)    
Max Wind Speed 14 mph    
Max Gust Speed 20 mph    
Visibility 9 miles    
Events      
Averages and records for this station are not official NWS values.
T = Trace of Precipitation, MM = Missing Value Source: NWS Daily Summary

Daily Weather History Graph

Daily Weather History Graph

Search for Another Location

Airport or City:

Trip Planner

Search our weather history database for the weather conditions in past years. The results will help you decide how hot, cold, wet, or windy it might be!

Date:

Astronomy

Jan. 08, 2013 Rise Set
Actual Time 7:41 AM CST 5:29 PM CST
Civil Twilight 7:12 AM CST 5:58 PM CST
Nautical Twilight 6:40 AM CST 6:30 PM CST
Astronomical Twilight 6:09 AM CST 7:01 PM CST
Moon 4:16 AM CST (1/8) 2:32 PM CST (1/8)
Length of Visible Light 10h 45m
Length of Day
9h 48m
Waning Crescent, 13% of the Moon is Illuminated
Jan 8
Waning Crescent
Jan 11
New
Jan 18
First Quarter
Jan 26
Full
Feb 3
Last Quarter

Hourly Weather History & Observations

Time (CST) Temp. Windchill Dew Point Humidity Pressure Visibility Wind Dir Wind Speed Gust Speed Precip Events Conditions
12:53 AM 39.9 °F 34.5 °F 30.0 °F 68% 30.06 in 10.0 mi South 8.1 mph - N/A   Clear
1:53 AM 39.0 °F 33.4 °F 28.9 °F 67% 30.06 in 10.0 mi South 8.1 mph - N/A   Clear
2:53 AM 39.0 °F 33.4 °F 28.9 °F 67% 30.06 in 10.0 mi South 8.1 mph - N/A   Clear
3:53 AM 39.0 °F 32.8 °F 28.9 °F 67% 30.06 in 10.0 mi South 9.2 mph - N/A   Clear
4:53 AM 36.0 °F 28.5 °F 28.0 °F 73% 30.04 in 10.0 mi SSE 10.4 mph - N/A   Scattered Clouds
6:53 AM 34.0 °F 26.6 °F 26.1 °F 73% 30.07 in 10.0 mi SSE 9.2 mph - N/A   Clear
7:53 AM 34.0 °F 26.6 °F 26.1 °F 73% 30.07 in 10.0 mi SSE 9.2 mph - N/A   Clear
8:53 AM 37.9 °F 30.0 °F 27.0 °F 65% 30.08 in 10.0 mi SSE 12.7 mph - N/A   Clear
9:53 AM 42.1 °F 36.6 °F 28.9 °F 60% 30.07 in 10.0 mi South 9.2 mph - N/A   Clear
10:53 AM 48.0 °F - 30.9 °F 52% 30.05 in 10.0 mi South 6.9 mph 16.1 mph N/A   Clear
11:53 AM 52.0 °F - 32.0 °F 47% 30.02 in 10.0 mi SSW 13.8 mph 19.6 mph N/A   Clear
12:53 PM 55.9 °F - 32.0 °F 40% 29.99 in 10.0 mi SSW 10.4 mph 18.4 mph N/A   Clear
1:53 PM 55.9 °F - 32.0 °F 40% 29.99 in 10.0 mi South 6.9 mph - N/A   Clear
2:53 PM 57.9 °F - 32.0 °F 37% 30.01 in 10.0 mi South 5.8 mph - N/A   Overcast
3:53 PM 57.0 °F - 32.0 °F 39% 30.01 in 10.0 mi South 6.9 mph - N/A   Overcast
4:53 PM 55.9 °F - 34.0 °F 44% 30.03 in 10.0 mi South 8.1 mph - N/A   Overcast
5:53 PM 55.4 °F - 35.6 °F 47% 30.05 in 10.0 mi South 4.6 mph - N/A   Overcast
6:53 PM 50.0 °F - 39.0 °F 66% 30.08 in 10.0 mi South 5.8 mph - N/A   Partly Cloudy
7:53 PM 48.0 °F - 39.9 °F 74% 30.10 in 10.0 mi South 3.5 mph - N/A   Clear
8:53 PM 45.0 °F - 39.9 °F 82% 30.12 in 10.0 mi Calm Calm - N/A   Clear
9:53 PM 37.9 °F 35.5 °F 36.0 °F 93% 30.15 in 6.0 mi North 3.5 mph - N/A   Clear
10:53 PM 39.0 °F - 36.0 °F 89% 30.18 in 5.0 mi Calm Calm - N/A   Clear
11:53 PM 33.8 °F - 30.2 °F 87% 30.19 in 5.0 mi Calm Calm - N/A   Clear